Погода в Кургане

Погода в Кургане : погода сейчас, прогноз погоды и архив. Всё, что Вы хотите узнать о погоде в Кургане!

Хотите узнать прогноз погоды в Кургане? Тогда Вам сюда: Погода в Кургане

Поиск расширенной информации на нашем сайте:

Другие новости

Новости СМИ2

Главная страница сайта

Новости сайта

03.07.2017

Напоминаем, что на нашем специализированном сайте Метеоцентр.Азия вы можете получить высокодетализированные автоматические прогнозы погоды по пунктам России, СНГ и мира в авиационном формате (включающие направление и скорость ветра, видимость, явления погоды, количество и форму облачности, нижнюю и верхнюю границу облачности).


Погода в Кургане - сегодня

Время (UTC), дата Ветер
(°,м/с) 
Видим.   Явления Облачность Т
(°С)
Тd
(°С)
f(%) Тe
(°С)
Pmin
(гПа)
dP
(гПа)
Po
(мм)
O2
(г/м3)
Тmin Tmax R s Состояние
почвы
00 18.11.17 200 (Ю) 10 км  {ливн. осадки}  10/3 600 м кучево-дожд., средняя 
[Cb cap|Ac und]
-1.1 -3.1 86 -2  1015.2  -0.1  754  306           
03 18.11.17 270 (З) 10 км    10/4 1000 м кучево-дожд., средняя, верхняя 
[Cb cap|Ac trans|Ci fib]
-1.3 -3.6 84 -2  1016.2  755  306  -1.8    0.0  мокрый или
старый снег
50-90% 
06 18.11.17 280 (З) 10 км  слаб. ливневой снег  10/6 1000 м кучево-дожд., средняя 
[Cb cap|Ac und]
-0.8 -3.3 83 -3  1017.7  1.5  756  306           
09 18.11.17 280 (З) 20000 м  {ливн. осадки}  8/8 1000 м 
[Sc]
-0.2 -5.1 69 -2  1019.2  1.5  757  306           
12 18.11.17 240 (ЮЗ) 10 км  {ливн. осадки}  8/8 600 м 
[Sc]
-0.6 -4 78 -1  1020.9  1.7  759  307           
15 18.11.17 230 (ЮЗ) 10 км  слаб. ливневой снег  10/6 1000 м кучево-дожд., средняя 
[Cb cap|Ac und]
-0.5 -3.9 78 -1  1021.8  0.8  759  307    +0.2  0.0     
18 18.11.17 200 (Ю) 10 км  {ливн. осадки}  10/8 1000 м средняя 
[Sc|Ac und]
-1.8 -4.3 83 -3  1022.2  0.4  760  309           
21 18.11.17 200 (Ю) 10 км    10/0 средняя 
[Ac und]
-1.4 -4.4 80 -2  1022.3  760  308           
00 19.11.17 200 (Ю) 10 км  слаб. ливневой снег  10/5 1000 м кучево-дожд., средняя, верхняя 
[Cb cap|Ac trans|Ci fib]
-1.4 -3.8 84 -2  1022.9  0.7  760  308           
03 19.11.17 200 (Ю) 10 км  {ливн. осадки}  10/8 1000 м верхняя 
[Sc|Ci fib]
-2.5 -4.6 85 -4  1024.1  1.1  761  310  -2.6    0.0  мокрый или
старый снег
50-90% 
06 19.11.17 230 (ЮЗ) 10 км  {ливн. осадки, снег}  8/0 средняя 
[Ac trans]
+0.8 -3.2 75 1025.7  1.7  762  307           
09 19.11.17 250 (З) 20000 м    8/6 1000 м средняя 
[Sc|Ac trans]
+2.2 -2.8 69 +1  1026.9  1.3  763  305           
12 19.11.17 270 (З) 10 км    10/5 1000 м средняя 
[Sc|Ac und]
+2.1 -5.3 58 +1  1028.7  1.7  764  306           
15 19.11.17 190 (Ю) 10 км    10/0 средняя 
[Ac und]
+1.6 -2.8 73 +1  1029.6  0.9  765  307    +2.6  0.0     
18 19.11.17 190 (Ю) 10 км    10/0 средняя 
[Ac und]
+0.3 -3.1 78 1029.6  0.1  765  308           
21 19.11.17 180 (Ю) 10 км    10/0 средняя 
[Ac und]
+0.1 -2.4 83 +1  1029.4  0.1  765  308           
00 20.11.17 200 (Ю) 10 км    10/0 средняя 
[Ac und]
-0.3 -2.6 84 -2  1029.5  0.1  765  309           
03 20.11.17 200 (Ю) 10 км    6/0 средняя, верхняя 
[Ac trans|Ci fib]
-2.5 -4.3 87 -5  1029.8  0.1  765  312  -2.5      мокрый или
старый снег
10-40% 
06 20.11.17 190 (Ю) 20000 м    6/0 верхняя 
[Ci fib]
-2.4 -5.1 82 -5  1029.6  0.1  765  312  -3.1         
09 20.11.17 200 (Ю) 20000 м    8/4 1000 м верхняя 
[Cu hum|Ci]
-0.1 -3.8 76 -2  1029.2  0.1  765  309           
12 20.11.17 190 (Ю) 10 км    10/3 1000 м средняя, верхняя 
[Sc diur, vesp|Ac trans|Ci]
-0.7 -3.9 79 -2  1029.4  0.1  765  309           
15 20.11.17 190 (Ю) 10 км    10/5 1000 м средняя 
[Sc diur, vesp|Ac und]
+0.2 -2.7 81 -2  1028.8  -0.6  764  308    +0.2       
18 20.11.17 200 (Ю) 10 км    3/0 средняя 
[Ac trans]
+0 -2.4 84 -1  1028.6  -0.2  764  308           
21 20.11.17 190 (Ю) 10 км    ясно 
-0.8 -2.5 88 -3  1028.4  -0.2  764  309           
00 21.11.17 190 (Ю) 10 км    6/6 1000 м 
[Sc]
-0.1 -2.8 82 -3  1028.2  0.1  764  308           
Время (UTC), дата Ветер
(°,м/с) 
Видим.   Явления Облачность Т
(°С)
Тd
(°С)
f(%) Тe
(°С)
Pmin
(гПа)
dP
(гПа)
Po
(мм)
O2
(г/м3)
Тmin Tmax R s Состояние
почвы

Для получения пояснительной информации подведите курсор к названию столбца.

ПОГОДА в Кургане - архив

Всё, что Вы хотите узнать о погоде в Кургане - удобно и подробно!

Выберите нужную дату (начиная с 1 января 2015* года) и нажмите кнопку "Найти".
Будут отображены архивные сводки погоды по пункту Курган, начиная с указанной даты.


Отображать данные в формате CSV (для использования в таблицах Excel)


Внимание! Наш архив погоды предназначен исключительно для личного некоммерческого использования в познавательных целях. Если Вам необходимы официальные справки о состоянии погоды (для производственных, юридических, коммерческих и т.п. целей), обращайтесь в органы Росгидромета.

*Примечание: данная дата относится к архиву по метеостанциям СССР (Россия, СНГ, Балтия).
Архив по метеостанциям Зарубежной Европы и Азии (кроме Китая) хранится 10 дней, по другим регионам земного шара (Китай, Африка, Америка, Австралия, Океания) - 1 день.

Курган - район местоположения метеостанции


Название, широта, долгота, высота метеостанции:
Курган 55.5°ш. 65.4°д. 74 м над ур. моря [Российская Федерация]

Дополнительная информация

В oтличие oт бoльшинства пoгoдных сайтoв мы публикуем пoдрoбную метеoинфoрмацию в детальнoм прoфессиoнальнoм фoрмате.

Характеристики температуры и влажнoсти вoздуха измеряются на высoте 2 м в тени вдали oт зданий и деревьев.
Скoрoсть ветра измеряется на высoте 10 м (на урoвне рoста челoвека скoрoсть ветра ниже в 1.5-2 раза). Если метеoстанция нахoдится в гoрoде или в лесу, тo скoрoсть ветра занижена на 2-4 м/с пo сравнению с oткрытым местoм. Скoрoсть ветра над акватoриями крупных рек и oзёр, а также на вершинах хoлмoв на 2-5 м/с выше, чем в oбычных услoвиях.
Атмoсфернoе давление в разных тoчках местнoсти мoжет значительнo oтличаться oт давления на метеoстанции, в зависимoсти oт услoвий рельефа (при пoдъёме на 10 м давление пoнижается примернo на 1 мм рт.ст.).